Regional Weather Roundup
Issued by NWS Wakefield, VA

Home | Current Version | Previous Version | Text Only | Print | Product List | Glossary Off
Versions: 1 2 3 4 5 6 7 8 9 10 11 12 13 14 15 16 17 18 19 20 21 22 23 24 25 26 27 28

000
ASUS41 KAKQ 211315
RWRAKQ

REGIONAL WEATHER ROUNDUP
NATIONAL WEATHER SERVICE WAKEFIELD VA
800 AM EST SUN JAN 21 2018

Note: "fair" indicates few or no clouds below 12,000 feet with no
significant weather and/or obstructions to visibility. * = Denotes
station may not report precipitation (e.g., rain,snow,etc.),
thunder or fog.

VAZ042-051-052>054-056-211400-
NORTHERN VIRGINIA

CITY           SKY/WX    TMP DP  RH WIND       PRES   REMARKS
WASH NATIONAL  CLOUDY    37  33  85 S8        30.19S
DULLES         MOCLDY    35  31  85 CALM      30.18S
FORT BELVOIR   MOCLDY    30  27  88 CALM        N/A
QUANTICO       NOT AVBL
FREDERICKSBRG* FAIR      29  29 100 CALM      30.19R
STAFFORD*      FAIR      28  28 100 CALM      30.23S
WARRENTON      CLOUDY    31  26  82 CALM      30.18R
CULPEPER*      CLOUDY    31  27  84 CALM      30.20R
MANASSAS*      CLOUDY    30  29  96 CALM      30.20S
LEESBURG*      CLOUDY    41  34  75 CALM      30.19R
WINCHESTER     MOCLDY    37  32  81 SW3       30.17S
FRONT ROYAL*   CLOUDY    39  34  81 MISG      30.16S
LURAY*         FAIR      34  32  93 CALM      30.17S
$$

VAZ048-049-060>072-079>083-211400-
CENTRAL AND SOUTH CENTRAL VIRGINIA

CITY           SKY/WX    TMP DP  RH WIND       PRES   REMARKS
RICHMOND       FAIR      32  29  88 CALM      30.20R
CHESTERFIELD*  NOT AVBL
PETERSBURG*    FAIR      28  27  93 CALM      30.21S FOG
HANOVER        FAIR      30  29  96 CALM      30.21R
TAPPAHANNOCK*  FAIR      30  29  96 CALM      30.21R
QUINTON*       FAIR      29  29 100 CALM      30.21R
CHARLOTTSVILLE FAIR      38  34  85 N3        30.17R
GORDONSVILLE*  FAIR      32  32  99 SW5       30.17S
ORANGE*        FAIR      32  30  93 CALM      30.17R
LOUISA*        FAIR      37  35  89 SW5       30.22R
BUMPASS*       FAIR      35  33  95 S3        30.17F
FARMVILLE*     FAIR     N/A N/A N/A CALM      30.19S
CREWE*         FAIR      36  36 100 CALM      30.20R
FORT PICKETT*  FAIR      37  37 100 CALM      30.20S
CHASE CITY*    FAIR      33  33 100 CALM      30.22R
CLARKSVILLE*   FAIR      36  36 100 CALM      30.21S
SOUTH HILL*    FAIR      35  35  98 CALM      30.27S
LAWRENCEVILLE* FAIR      34  33  96 SW3       30.21R
EMPORIA*       FAIR      30  28  93 CALM      30.23R
$$

VAZ088>098-211400-
SOUTHEAST VIRGINIA

CITY           SKY/WX    TMP DP  RH WIND       PRES   REMARKS
NORFOLK        FAIR      35  32  88 SW6       30.20R
VIRGINIA BEACH FAIR      34  30  85 SW5       30.20R
NORFOLK NAVAL  FAIR      36  32  85 CALM      30.22R
WEST POINT*    FAIR      28  27  94 CALM      30.23R
SALUDA*        FAIR      30  30 100 CALM      30.20R
NEWPORT NEWS   FAIR      32  30  92 CALM      30.21R
LANGLEY AFB    NOT AVBL
FORT EUSTIS    FAIR      33  30  90 CALM      30.19R
WILLIAMSBURG*  FAIR      32  28  86 CALM      30.22R
HR EXEC AP*    FAIR      31  30  96 CALM      30.22R
FRANKLIN*      FAIR      28  27  94 CALM      30.22R
US460-WAKEFLD  FAIR      30  29  96 CALM      30.22R
$$

VAZ020-022-025-037-045-211400-
WEST CENTRAL AND SOUTHWEST VIRGINIA

CITY           SKY/WX    TMP DP  RH WIND       PRES   REMARKS
STAUNTON*      FAIR      28  26  94 CALM      30.20R
WAYNESBORO*    FAIR      48  43  82 SW7       30.17S
HOT SPRINGS VA MOCLDY    42  40  91 W15G22    30.17R
LYNCHBURG      FAIR      31  30  96 CALM      30.21R
DANVILLE       FAIR      32  32 100 SW5       30.23R
SOUTH BOSTON*  FAIR      32  31  96 CALM      30.22S
MARTINSVILLE   FAIR      28  27  96 CALM      30.26R
ROANOKE        MOCLDY    44  36  73 VRB3      30.23S
BLACKSBURG     CLOUDY    35  34  96 CALM      30.25S
DUBLIN*        CLOUDY    40  35  83 CALM      30.24S
MARION*        FAIR      37  33  86 CALM      30.26S
HILLSVILLE*    CLOUDY    41  35  79 SW3       30.22S
RICHLANDS*     CLOUDY    45  33  64 SW5       30.23R
WISE*          CLOUDY    45  36  70 SW9       30.23S
ABINGDON*      CLOUDY    40  37  91 CALM      30.25S
$$

MDZ021>025-VAZ099-100-211400-
SOUTHERN MARYLAND AND THE DELMARVA PENINSULA

CITY           SKY/WX    TMP DP  RH WIND       PRES   REMARKS
PATUXENT RIVER NOT AVBL
BAY BRIDGE APT CLOUDY    36  32  87 E21G166   30.19S WCI  24
LEONARDTOWN    FAIR      32  32 100 CALM      30.21S
DOVER          CLOUDY    32  32 100 CALM      30.19R
GEORGETOWN     MOCLDY    32  27  81 CALM      30.20R
EASTON         CLOUDY    34  30  86 CALM      30.23R
CAMBRIDGE      CLOUDY    32  28  86 CALM      30.20S
SALISBURY      FAIR      31  27  85 CALM      30.20R
OCEAN CITY     FAIR      32  32 100 NW3       30.20R
WALLOPS ISLAND FAIR      34  32  92 SW5       30.20R
ACCOMACK*      FAIR      33  32  96 CALM      30.20R
$$

NCZ012>017-030>032-211400-
NORTH CENTRAL AND EASTERN NORTH CAROLINA

CITY           SKY/WX    TMP DP  RH WIND       PRES   REMARKS
ROANOKE RAPIDS FAIR      32  32 100 CALM      30.22R
RALEIGH        FAIR      32  30  92 CALM      30.23S
ELIZABETH CITY FAIR      35  34  96 CALM      30.22R
AHOSKIE*       FAIR      29  28  99 CALM      30.22S
EDENTON*       FAIR      37  32  81 CALM      30.23R
CURRITUCK*     FAIR      35  32  90 CALM      30.22R
KILL DEVIL HLS FAIR      39  31  72 CALM      30.20R
MANTEO         FAIR      42  30  63 NW3       30.22R
CAPE HATTERAS  FAIR      44  35  70 W7        30.22R
TARBORO*       NOT AVBL
GOLDSBORO      FAIR      39  29  66 CALM      30.22R
WASHINGTON     FAIR      34  28  79 CALM      30.24R
GREENVILLE     FAIR      34  30  86 CALM      30.24S
NEW BERN       FAIR      40  29  64 SW3       30.25R
WILMINGTON     FAIR      41  33  73 CALM      30.26R
$$

VAZ048-211400-
ELSEWHERE

CITY           SKY/WX    TMP DP  RH WIND       PRES   REMARKS
HARRISBURG PA  CLOUDY    34  32  92 CALM      30.17R
BALTIMORE      MOCLDY    37  34  89 CALM      30.17S
ANNAPOLIS      CLOUDY    36  33  89 CALM      30.19R
ANDREWS AFB    CLOUDY    35  32  89 CALM      30.18R
PHILADELPHIA   MOCLDY    33  28  81 CALM      30.19R
HENDERSON NC   FAIR      32  31  94 S5        30.22S
GREENSBORO     FAIR      35  33  92 CALM      30.22S
ROCKY MOUNT    NOT AVBL
$$

VAZ100-211400-
MARINE

STATION/POSITION TIME  TEMP    WIND        PRES    WAVE   SWELL
                       AIR SEA DIR/SP/G            HT/PER HT/PER
                 (UTC) (F)     (DEG/KT/KT) (MB)    (FT/S) (FT/S)
BRANDYWINE LGT   1242   45     300/  6/  8 1022.6R
CAPE MAY NJ      1242   37 33  290/  3/  3 1021.8R
LEWES DE         1242   41 34  270/  3/  3 1022.2R
15NM E FENWICK I 1250   42 39  320/  4/  4 1022.6R   2/ 7   2/ 7
OCEAN-CITY-INLET 1242   36 35   10/  4/  4 1022.7R
WACHAPREAGUE VA  1242   35 36   CALM  /  1 1022.5R
THOMAS POINT MD  1300   36 33  190/  3/  3   N/A
GOOSES REEF MD   1300   35 33  190/  2/  4 1022.8    0
COVE POINT MD    1242   46     260/  1/  3 1023.1R
SOLOMONS ISLAND  1242   34 34  310/  2/  3 1022.4R
BISHOPS HEAD MD  1242   36 35   CALM  /  1 1022.8R
PINEY POINT MD   1242           CALM  /  1   N/A
POTOMAC MD       1300      34                N/A
CAMBRIDGE MD     1242   33 33              1023.1R
LEWISETTA VA     1242   33 34  230/  3/  4 1022.5R
RAPPAHANNOCK LGT 1242          210/  4/  4 1023.1R
STINGRAY PT      1300   36 34  330/  4/  6 1025.2    0
YORK RVR RNG VA  1242   39     300/  5/  5 1023.3R
YORKTOWN VA      1242   35 35  270/  3/  3 1022.6R
DOMINION TERM VA 1242   39     300/  3/  4 1023.0R
KIPTOPEKE VA     1242      35  350/  3/  3   N/A
CAPE HENRY VA    1242   44     260/  4/  4   N/A
WILLOUBY STN VA  1242          250/  7/  8 1022.6R
S CRANEY ISL VA  1242   38     200/  3/  3 1022.5R
CAPE HENRY BUOY  1300      38                N/A     2/12
1ST LANDING BUOY 1300   39 34  280/  4/  4 1022.8    1/ 4
CAPE CHARLES BUO 1251      39                N/A     2/11
64NM E OF VA BCH 1250   51 57  330/ 10/ 12 1022.7R   3/ 6   2/ 6
DUCK PIER NC     1242   40 40  290/  4/  7 1022.3R
44100 DUCK FRF   1245      39                N/A     2/ 6
44056 DUCK FRF   1300      40                N/A     1/11
OREGON INLET NC  1242   41 40  270/  5/  6 1022.8R
HATTERAS NC      1242   44 49  280/ 10/ 12 1023.0R
DIAMOND SHLS NC  1250          300/ 12/ 16 1023.4R   4/ 4   2/11
CAPE LOOKOUT NC  1200          260/  6/  6 1023.9R
$$




USA.gov is the U.S. government's official web portal to all federal, state and local government web resources and services.